Flag for Saudi Arabia Weather past 2 weeks in Qatif, Saudi Arabia

Now
97 °F

Clear.


Feels Like: 115 °F
Forecast: 88 / 109 °F
Wind: 16 mph from East

Location: King Fahd International Airport

Current Time: Aug 4, 2015 at 7:41:54 PM

Latest Report: Aug 4, 2015 at 7:00 PM


Visibility: 10 mi

Pressure: 29.50 "Hg

Humidity: 56%

Dew point: 79 °F

Location of QatifLocation

Historic Weather in Qatif — Graph

°F

Qatif temperature yesterday

Maximum temperature yesterday: 113 °F (at 2:00 PM)
Minimum temperature yesterday: 84 °F (at 4:00 AM)
Average temperature yesterday: 98 °F

Past Weeks' High & Low Weather Summary

 TemperatureHumidityPressure
High118 °F (Jul 29, 1:00 PM)84% (Aug 3, 4:00 AM)29.62 "Hg (Aug 3, 4:00 AM)
Low84 °F (Jul 23, 3:00 AM)5% (Jul 21, 1:00 PM)29.36 "Hg (Jul 20, 6:00 PM)
Average100 °F34%29.47 "Hg
* Reported Jul 20 6:00 PM — Aug 4 6:00 PM, Qatif, Weather by CustomWeather, © 2015

Note: Actual official high and low records may vary slightly from our data, if they occured in-between our weather recording intervals... More about our weather records

Advertising

Qatif weather history for previous 24 hours

 ConditionsComfort  
Time TempWeatherWind HumidityBarometerVisibility
6:00 PM
Tue, Aug 4
102 °FSunny.16 mph45%29.50 "Hg10 mi
5:00 PM108 °FSunny.13 mph25%29.50 "Hg10 mi
4:00 PM111 °FSunny.12 mph16%29.50 "Hg10 mi
3:00 PM111 °FSunny.14 mph14%29.50 "Hg10 mi
2:00 PM111 °FSunny.13 mph20%29.53 "Hg10 mi
1:00 PM109 °FSunny.8 mph23%29.53 "Hg10 mi
12:00 PM108 °FSunny.7 mph25%29.56 "Hg10 mi
11:00 AM104 °FSunny.7 mph31%29.56 "Hg10 mi
10:00 AM102 °FSunny.9 mph35%29.59 "Hg10 mi
9:00 AM99 °FSunny.10 mph39%29.59 "Hg5 mi
8:00 AM93 °FSunny.9 mph63%29.59 "Hg4 mi
7:00 AM91 °FSunny.8 mph67%29.59 "Hg4 mi
6:00 AM86 °FSunny.8 mph75%29.56 "Hg2 mi
5:00 AM86 °FClear.3 mph70%29.53 "Hg4 mi
4:00 AM86 °FClear.No wind70%29.53 "Hg5 mi
3:00 AM86 °FClear.5 mph66%29.53 "Hg10 mi
2:00 AM86 °FClear.5 mph66%29.53 "Hg10 mi
1:00 AM90 °FClear.7 mph59%29.53 "Hg10 mi
12:00 AM91 °FClear.5 mph59%29.53 "Hg10 mi
10:00 PM
Mon, Aug 3
95 °FClear.5 mph50%29.56 "Hg10 mi
9:00 PM97 °FClear.3 mph47%29.53 "Hg10 mi
8:00 PM99 °FClear.7 mph42%29.53 "Hg10 mi
7:00 PM100 °FClear.9 mph35%29.53 "Hg10 mi
Weather by CustomWeather, © 2015

See weather overviewHow to use our weather pages